Wind_Speed
35 37 39 38 36 37 39 41 47 47 44 50 54 59 56 51 50 53 54 52 49 44 35 33 32 32 33 34 37 40 39 37 36 35 36 36 35 37 39 37 35 33 31 31
40 48 41 37 39 38 38 42 47 51 46 47 53 61 56 54 54 49 47 43 41 38 34 28 30 33 34 34 41 44 41 40 37 36 35 35 33 33 37 37 35 32 31 30
46 48 42 40 41 38 48 44 51 53 48 48 51 64 45 42 42 44 37 35 27 25 20 19 24 26 25 30 35 37 35 33 33 35 37 35 35 36 37 38 36 32 28 26
38 39 36 36 39 35 49 37 43 42 39 31 26 35 36 45 25 40 14 9 8 26 25 19 19 23 27 27 27 29 28 26 32 35 36 37 35 33 30 31 29 26 26 27
37 35 34 32 36 26 39 30 31 36 36 35 28 16 26 28 32 17 14 6 32 27 34 30 30 32 29 29 27 28 26 26 30 32 34 33 29 28 28 29 30 31 29 26
37 35 36 37 35 32 29 28 28 31 30 14 27 22 67 18 15 7 14 35 30 29 26 29 30 32 30 25 26 23 27 28 29 29 26 23 23 24 27 28 34 32 28 24
39 43 42 39 34 32 30 29 7 4 5 11 13 17 59 36 42 36 28 33 31 22 24 35 36 33 30 25 26 28 24 27 22 22 20 17 19 21 24 29 33 31 27 24
36 39 26 16 16 20 21 20 17 7 8 19 30 21 52 48 47 44 47 33 20 23 25 35 25 29 25 21 27 25 24 23 20 21 14 12 19 23 25 31 35 32 27 24
28 40 33 29 25 24 27 29 40 39 37 10 34 48 58 57 50 30 22 23 27 26 21 22 18 17 21 22 22 21 18 20 18 19 20 21 24 30 33 36 35 31 29 27
26 27 32 25 25 28 28 30 17 14 4 11 14 36 40 44 41 43 41 31 22 29 29 32 31 29 20 17 16 15 15 15 15 17 22 27 29 33 34 37 35 34 32 30
22 20 38 29 35 39 39 38 40 34 27 16 19 24 54 61 50 39 38 34 26 33 35 29 30 22 13 9 9 8 9 17 23 30 27 29 31 32 37 41 41 39 39 36
31 28 27 47 50 39 33 29 29 17 19 33 35 31 49 55 59 57 57 52 45 50 51 46 29 38 38 39 37 34 33 42 43 40 46 43 40 40 38 46 48 45 45 43
30 25 26 24 29 30 37 40 41 48 45 39 29 38 48 55 60 58 57 51 46 44 34 29 35 38 41 44 51 54 54 54 49 43 42 41 44 41 40 42 50 52 52 52
36 41 39 24 27 39 45 43 41 42 30 42 41 44 42 52 56 59 49 44 45 43 44 46 40 48 46 50 54 56 48 49 48 40 38 41 46 43 45 44 49 50 50 55
39 41 43 48 43 39 39 46 55 57 54 46 47 47 52 55 50 53 62 60 51 51 49 49 45 48 53 49 49 52 49 51 47 41 41 45 47 51 46 48 51 55 53 52
32 40 40 47 53 46 42 44 47 41 44 56 55 58 47 49 51 54 56 60 60 55 49 51 45 49 48 49 54 53 53 56 58 55 52 55 54 53 52 51 54 58 62 61
42 34 30 38 40 36 33 50 42 42 42 45 34 27 33 34 41 38 44 47 49 43 46 44 45 46 48 54 58 60 57 53 54 57 59 60 56 53 50 52 53 55 57 58
49 47 42 43 45 23 51 40 35 26 23 18 13 15 18 20 17 20 20 31 41 43 37 38 39 40 43 45 53 60 56 51 52 54 56 59 60 51 52 54 56 57 57 57
33 33 20 11 20 28 40 34 34 32 21 22 16 20 28 30 28 23 21 31 39 39 39 39 36 37 34 34 39 47 44 46 46 43 50 53 55 51 47 48 51 56 56 56
10 14 17 19 7 5 20 27 30 26 22 18 27 40 45 51 52 41 44 50 55 53 54 54 51 50 48 40 38 36 32 32 36 34 37 44 50 46 43 43 46 51 53 53
20 16 24 26 12 18 28 30 32 16 23 33 45 42 39 39 43 51 52 50 53 53 57 58 57 59 56 50 53 43 36 31 33 35 37 39 41 46 45 46 47 46 46 48
13 9 11 13 11 15 26 24 29 38 40 36 35 36 42 47 49 49 51 48 47 48 47 49 54 52 53 52 48 56 53 54 46 39 35 37 37 40 45 46 48 49 48 49
26 32 33 22 20 28 33 39 36 39 44 43 40 44 48 50 49 48 47 48 48 48 49 48 53 58 53 49 50 52 50 56 62 52 47 46 39 36 39 43 44 44 42 47
36 30 33 32 39 40 39 36 40 39 40 44 45 50 50 49 47 46 48 47 48 48 46 47 49 50 53 50 48 47 50 48 49 49 52 49 51 52 39 37 36 35 37 44
37 32 36 42 47 42 40 40 39 41 44 45 48 48 47 46 45 49 51 52 55 57 58 59 59 58 56 54 52 49 49 48 47 46 45 46 47 52 52 53 46 44 39 35
43 45 44 47 43 43 42 41 44 45 47 48 46 46 46 48 53 52 55 56 59 61 64 69 71 71 67 63 58 55 53 54 51 49 45 45 44 48 49 50 51 53 51 48
Wind_Direction
272 266 261 270 276 285 281 282 284 286 291 289 288 289 293 296 290 290 292 293 292 293 292 283 275 269 267 268 271 269 265 266 261 260 259 256 258 254 251 251 250 252 253 258
265 261 273 280 277 278 278 278 277 287 292 291 293 290 291 291 292 292 296 297 299 294 292 288 281 273 265 263 260 260 260 262 259 255 253 251 251 249 247 246 244 245 247 253
265 272 279 275 272 273 275 271 282 286 296 292 294 290 291 293 295 302 300 300 298 296 303 297 293 275 262 264 264 262 261 259 255 251 249 249 249 247 244 238 237 239 244 248
274 278 274 271 269 273 275 289 291 290 289 283 289 297 290 301 300 311 323 313 327 316 314 306 302 284 281 271 267 260 254 254 249 249 249 250 254 254 248 241 238 237 234 238
270 280 283 277 285 281 280 286 286 285 282 287 283 268 298 288 299 304 303 252 313 314 312 305 296 284 282 273 274 270 256 257 249 249 251 254 254 250 236 225 220 220 230 238
275 280 281 285 290 286 284 278 274 275 277 273 269 253 289 287 294 286 287 306 310 307 290 283 283 281 287 277 282 274 273 271 258 258 249 243 244 242 234 234 228 228 234 239
282 282 281 287 287 281 270 261 292 274 165 238 286 239 264 277 290 299 306 302 292 283 292 279 279 280 275 283 284 286 281 258 259 244 243 235 239 238 237 235 227 233 237 248
284 287 278 275 263 288 282 260 220 216 261 276 284 257 272 287 289 295 297 288 292 294 292 289 284 277 263 277 294 289 278 251 247 232 233 255 257 239 239 235 236 242 250 250
273 273 278 277 258 265 268 256 275 256 262 288 269 271 278 279 286 280 289 293 296 289 312 334 323 301 273 270 277 268 257 243 228 219 261 267 268 252 241 232 236 245 249 259
262 278 282 275 268 260 258 265 255 238 215 244 231 260 270 273 271 281 284 275 269 290 333 331 318 310 291 275 264 268 264 231 240 256 266 274 263 252 244 241 245 248 247 257
262 253 260 268 271 274 266 255 251 251 250 257 259 248 274 279 279 273 264 266 283 286 296 312 316 315 294 245 260 265 280 279 272 279 281 278 267 251 249 249 250 253 255 254
261 276 269 278 281 272 256 260 253 244 251 250 259 258 268 283 272 273 284 281 284 303 302 283 286 305 290 281 284 287 282 289 292 283 278 279 270 260 253 252 253 257 259 259
277 276 275 273 268 276 257 271 266 265 260 260 262 265 264 267 273 276 282 298 305 299 300 290 291 284 276 273 269 271 274 270 279 284 274 270 261 260 262 259 256 256 256 259
269 265 261 273 283 289 283 280 279 281 261 260 259 268 272 277 279 291 295 289 282 277 278 282 280 279 272 274 269 265 260 260 269 273 269 260 257 265 265 258 255 249 252 254
263 263 267 276 280 275 282 287 283 272 267 258 262 274 279 283 277 274 280 283 283 283 281 280 274 278 279 276 273 269 270 269 270 256 259 260 269 272 267 257 255 253 257 251
268 281 282 277 277 281 287 288 280 284 290 296 297 298 285 273 267 264 269 268 273 277 275 275 273 279 274 277 281 280 279 278 274 263 255 255 258 266 263 263 257 256 257 258
279 277 278 276 283 292 284 276 284 284 282 283 280 273 264 262 254 253 258 265 271 278 277 274 272 272 272 273 273 276 278 279 273 271 268 261 259 258 261 256 255 253 255 256
273 277 277 276 289 275 282 292 282 273 268 293 294 265 272 272 271 283 276 274 274 275 282 280 280 278 275 275 274 274 275 276 270 269 263 257 257 258 255 258 257 250 252 252
267 266 266 254 261 275 282 279 276 283 284 274 283 309 315 305 293 295 288 293 296 296 297 296 300 292 284 277 273 276 270 267 267 263 255 251 254 256 256 257 257 252 251 249
244 225 240 269 276 249 271 279 284 301 279 271 302 322 321 315 313 290 305 305 305 305 304 306 303 309 307 296 296 271 255 246 250 244 240 241 242 247 248 248 251 253 252 250
257 262 252 265 268 273 271 276 281 291 282 292 313 316 319 318 315 311 314 311 309 309 307 308 306 306 306 308 297 292 272 263 250 245 242 238 240 239 240 241 240 242 241 238
255 267 264 274 265 266 267 276 305 309 309 306 307 310 311 311 312 313 313 311 308 306 305 302 300 301 303 303 303 293 293 295 291 283 265 252 247 243 240 234 235 236 236 237
264 263 272 259 257 272 278 285 296 305 300 305 305 310 310 310 310 310 309 308 309 308 307 306 301 299 299 296 297 295 295 292 292 294 289 285 266 254 249 247 240 239 237 234
275 281 261 262 277 291 288 288 296 294 298 301 300 302 305 305 305 305 305 305 306 307 306 304 303 299 296 296 290 289 291 289 288 286 283 280 283 276 268 261 247 244 246 240
275 277 277 275 283 295 290 295 304 297 298 296 296 299 299 296 296 299 302 302 303 303 303 300 299 298 295 295 292 290 285 286 282 279 273 272 271 278 277 282 273 270 264 260
274 282 278 282 294 295 295 298 296 295 295 298 298 297 297 295 298 298 298 300 301 298 299 298 298 297 294 293 291 287 282 281 279 275 273 267 264 266 264 265 266 276 279 278
Height
3127 3122 3121 3124 3125 3123 3121 3119 3112 3113 3116 3108 3101 3092 3094 3098 3096 3091 3088 3087 3084 3082 3082 3082 3082 3083 3081 3080 3078 3077 3078 3078 3078 3079 3079 3079 3081 3083 3086 3089 3092 3094 3097 3098
3117 3106 3114 3118 3117 3116 3114 3110 3105 3100 3106 3101 3091 3079 3085 3087 3082 3082 3077 3076 3074 3072 3072 3072 3071 3071 3070 3069 3067 3066 3068 3069 3070 3070 3070 3070 3072 3074 3077 3080 3083 3087 3089 3090
3105 3105 3111 3109 3107 3110 3103 3105 3098 3095 3098 3091 3080 3055 3070 3073 3072 3072 3069 3065 3065 3064 3064 3063 3062 3061 3060 3058 3057 3058 3059 3060 3061 3061 3061 3062 3063 3064 3066 3069 3074 3078 3081 3083
3098 3098 3099 3099 3097 3103 3093 3102 3098 3094 3092 3084 3082 3038 3053 3062 3060 3062 3059 3059 3060 3063 3062 3060 3057 3057 3056 3054 3051 3051 3052 3053 3052 3053 3054 3055 3056 3058 3061 3065 3069 3072 3074 3075
3093 3091 3093 3092 3091 3095 3086 3093 3092 3090 3087 3081 3075 3075 3042 3048 3052 3054 3055 3055 3054 3055 3054 3052 3050 3049 3046 3046 3047 3046 3046 3046 3045 3046 3046 3048 3050 3052 3054 3056 3060 3063 3065 3066
3086 3087 3084 3087 3088 3088 3087 3085 3085 3083 3082 3074 3070 3075 3004 3041 3046 3048 3051 3053 3051 3048 3046 3042 3040 3038 3038 3039 3038 3040 3040 3040 3039 3040 3040 3040 3042 3046 3049 3051 3052 3055 3056 3057
3083 3080 3076 3080 3082 3080 3082 3081 3082 3078 3075 3064 3059 3062 3022 3041 3045 3043 3042 3045 3044 3042 3037 3033 3031 3029 3029 3032 3032 3032 3032 3032 3033 3035 3035 3035 3037 3038 3041 3044 3047 3048 3049 3050
3076 3066 3071 3069 3071 3073 3075 3075 3073 3077 3064 3051 3054 3042 3021 3039 3039 3039 3037 3034 3036 3036 3031 3025 3023 3022 3022 3024 3026 3026 3026 3026 3027 3030 3032 3032 3032 3032 3033 3035 3038 3040 3041 3041
3071 3062 3062 3063 3062 3063 3061 3061 3063 3058 3055 3054 3038 3029 3027 3027 3030 3029 3030 3029 3031 3029 3026 3022 3018 3019 3019 3019 3019 3020 3021 3021 3021 3023 3026 3027 3027 3026 3026 3026 3028 3030 3032 3033
3064 3061 3058 3057 3057 3050 3054 3052 3050 3052 3051 3042 3032 3027 3020 3018 3020 3025 3024 3023 3022 3024 3022 3020 3015 3014 3015 3015 3014 3015 3014 3017 3018 3018 3018 3018 3020 3021 3021 3021 3020 3020 3022 3022
3055 3054 3046 3048 3048 3048 3046 3043 3039 3034 3035 3028 3022 3019 3019 3010 3013 3013 3014 3017 3018 3017 3017 3018 3012 3012 3012 3010 3011 3008 3009 3013 3012 3013 3013 3011 3011 3010 3011 3012 3012 3012 3012 3013
3051 3044 3038 3032 3035 3036 3035 3031 3032 3029 3018 3014 3011 3006 3012 3006 3004 3006 3006 3009 3009 3007 3006 3006 3008 3006 3008 3005 3004 3003 3002 3000 3001 3002 3001 3001 3001 2999 2998 3000 3002 3001 3002 3003
3040 3035 3029 3026 3024 3023 3022 3023 3020 3017 3015 3008 3002 2994 3005 2999 2996 2995 2996 2999 2998 2998 2994 2993 2995 2996 2991 2988 2989 2990 2988 2989 2988 2987 2986 2986 2988 2989 2989 2988 2988 2989 2991 2992
3033 3025 3025 3016 3013 3016 3014 3016 3012 3011 3003 2991 2990 2988 2995 2993 2991 2989 2992 2986 2981 2978 2977 2974 2976 2978 2976 2974 2973 2974 2972 2971 2971 2972 2973 2973 2974 2976 2978 2975 2974 2975 2978 2978
3021 3008 3014 3010 3007 3006 3005 3002 3000 2996 2991 2986 2978 2981 2985 2990 2985 2977 2969 2963 2963 2961 2962 2965 2962 2962 2959 2959 2961 2961 2961 2961 2959 2953 2955 2958 2960 2961 2961 2961 2961 2962 2962 2965
3010 3000 3002 2996 2995 2998 2992 2991 2987 2983 2978 2968 2964 2964 2965 2965 2963 2962 2955 2952 2947 2947 2949 2950 2947 2942 2944 2945 2944 2944 2945 2944 2942 2943 2940 2939 2939 2943 2944 2945 2944 2946 2947 2948
2997 2995 2993 2981 2987 2987 2979 2976 2977 2973 2970 2960 2954 2953 2950 2948 2945 2945 2940 2939 2936 2934 2933 2932 2931 2930 2930 2929 2929 2929 2928 2927 2927 2927 2927 2925 2924 2923 2927 2926 2929 2928 2931 2933
2984 2987 2986 2974 2978 2972 2960 2967 2962 2961 2954 2949 2947 2945 2943 2941 2936 2936 2930 2927 2927 2923 2920 2918 2917 2916 2915 2915 2914 2914 2912 2909 2907 2909 2909 2907 2907 2907 2908 2909 2911 2912 2914 2917
2974 2977 2974 2970 2964 2958 2958 2957 2954 2949 2945 2942 2940 2937 2935 2932 2933 2936 2926 2923 2920 2914 2910 2907 2903 2903 2903 2901 2900 2898 2896 2895 2891 2890 2891 2888 2890 2891 2890 2891 2894 2897 2899 2901
2968 2968 2968 2962 2960 2955 2949 2949 2946 2943 2939 2936 2933 2931 2927 2922 2917 2915 2915 2914 2910 2905 2900 2896 2893 2892 2892 2888 2886 2885 2883 2878 2876 2874 2873 2872 2871 2872 2873 2874 2878 2883 2885 2886
2958 2958 2957 2955 2952 2944 2941 2941 2939 2940 2936 2931 2928 2923 2919 2915 2914 2907 2903 2901 2898 2894 2890 2884 2880 2879 2879 2876 2874 2872 2869 2866 2861 2860 2860 2859 2859 2857 2857 2858 2860 2865 2868 2869
2951 2952 2950 2948 2947 2941 2937 2937 2937 2933 2926 2924 2920 2917 2912 2907 2902 2897 2893 2890 2887 2881 2879 2876 2870 2869 2863 2865 2862 2858 2856 2853 2848 2846 2845 2847 2845 2845 2844 2842 2846 2849 2851 2856
2945 2945 2941 2942 2933 2933 2933 2932 2928 2924 2918 2914 2910 2907 2901 2896 2892 2888 2883 2879 2875 2871 2866 2863 2857 2851 2853 2852 2847 2840 2841 2837 2833 2834 2836 2836 2833 2831 2832 2832 2832 2832 2832 2837
2929 2932 2928 2929 2926 2923 2921 2921 2920 2916 2911 2906 2902 2897 2891 2885 2882 2877 2872 2869 2864 2860 2855 2850 2846 2843 2839 2837 2833 2829 2821 2819 2816 2817 2821 2820 2820 2820 2817 2819 2819 2819 2822 2823
2922 2924 2922 2916 2913 2914 2911 2910 2908 2904 2901 2896 2892 2888 2881 2875 2871 2866 2860 2856 2850 2845 2840 2836 2831 2826 2821 2817 2813 2810 2808 2803 2801 2799 2799 2800 2800 2801 2804 2804 2805 2807 2810 2812
2913 2912 2911 2903 2905 2904 2901 2900 2896 2892 2888 2884 2880 2876 2872 2864 2858 2853 2848 2843 2837 2830 2824 2816 2810 2804 2801 2797 2795 2794 2790 2786 2783 2781 2780 2782 2780 2781 2784 2787 2789 2790 2792 2795